When you browse on this site, cookies collect data to enhance your experience and personalize the content and advertising you see.
Visit our Privacy Policy to learn more. By continuing to use the site, you agree to this use of cookies and data.
  • In Österreich
  • Länderverzeichnis
  • Für 7 Tage
  • Wassertemperatur
  • Wetterkarte
  • News
  • Widgets
  • user-avatar
    Anmelden

    Stündliche Wetter Kupovcy

    Heute, 4 Juni, Donnerstag

    Zeit Temperatur Niederschläge Wind Luftdruck Luftfeuchtigkeit
    00:00 +6°C° 0 mm 2 m/S 739 mmHg 95%
    01:00 +6°C° 0 mm 2 m/S 739 mmHg 96%
    02:00 +6°C° 0 mm 2 m/S 739 mmHg 97%
    03:00 +6°C° 0 mm 2 m/S 739 mmHg 97%
    04:00 +6°C° 0 mm 2 m/S 739 mmHg 98%
    05:00 +6°C° 0 mm 2 m/S 739 mmHg 98%
    06:00 +7°C° 0 mm 2 m/S 739 mmHg 96%
    07:00 +9°C° 0 mm 2 m/S 739 mmHg 94%
    08:00 +10°C° 0 mm 2 m/S 739 mmHg 92%
    09:00 +11°C° 0.3 mm 3 m/S 739 mmHg 88%
    10:00 +12°C° 0.3 mm 3 m/S 739 mmHg 84%
    11:00 +14°C° 0.3 mm 3 m/S 738 mmHg 80%
    12:00 +14°C° 0.7 mm 3 m/S 738 mmHg 79%
    13:00 +15°C° 0.7 mm 4 m/S 738 mmHg 77%
    14:00 +15°C° 0.7 mm 4 m/S 738 mmHg 75%
    15:00 +15°C° 0.5 mm 4 m/S 738 mmHg 76%
    16:00 +15°C° 0.5 mm 4 m/S 738 mmHg 76%
    17:00 +15°C° 0.5 mm 4 m/S 738 mmHg 77%
    18:00 +14°C° 0.4 mm 3 m/S 738 mmHg 81%
    19:00 +13°C° 0.4 mm 3 m/S 738 mmHg 85%
    20:00 +13°C° 0.4 mm 2 m/S 738 mmHg 89%
    21:00 +12°C° 0 mm 2 m/S 738 mmHg 90%
    22:00 +10°C° 0 mm 2 m/S 738 mmHg 91%
    23:00 +9°C° 0 mm 2 m/S 738 mmHg 92%

    Morgen, 5 Juni, Freitag

    Zeit Temperatur Niederschläge Wind Luftdruck Luftfeuchtigkeit
    00:00 +9°C° 0 mm 2 m/S 738 mmHg 93%
    01:00 +9°C° 0 mm 2 m/S 738 mmHg 93%
    02:00 +8°C° 0 mm 2 m/S 738 mmHg 94%
    03:00 +8°C° 0 mm 2 m/S 738 mmHg 94%
    04:00 +8°C° 0 mm 2 m/S 738 mmHg 94%
    05:00 +9°C° 0 mm 2 m/S 737 mmHg 94%
    06:00 +12°C° 0 mm 2 m/S 738 mmHg 92%
    07:00 +13°C° 0 mm 3 m/S 738 mmHg 90%
    08:00 +16°C° 0 mm 3 m/S 738 mmHg 87%
    09:00 +17°C° 0.1 mm 4 m/S 738 mmHg 85%
    10:00 +18°C° 0.1 mm 4 m/S 738 mmHg 82%
    11:00 +20°C° 0.1 mm 5 m/S 738 mmHg 80%
    12:00 +20°C° 0.3 mm 5 m/S 738 mmHg 80%
    13:00 +20°C° 0.3 mm 5 m/S 738 mmHg 80%
    14:00 +20°C° 0.3 mm 5 m/S 738 mmHg 79%
    15:00 +21°C° 0.3 mm 5 m/S 738 mmHg 80%
    16:00 +21°C° 0.3 mm 5 m/S 738 mmHg 80%
    17:00 +21°C° 0.3 mm 5 m/S 738 mmHg 80%
    18:00 +20°C° 0.8 mm 4 m/S 738 mmHg 84%
    19:00 +19°C° 0.8 mm 4 m/S 738 mmHg 88%
    20:00 +18°C° 0.8 mm 3 m/S 739 mmHg 91%
    21:00 +18°C° 0.1 mm 3 m/S 739 mmHg 92%
    22:00 +17°C° 0.1 mm 3 m/S 739 mmHg 93%
    23:00 +15°C° 0.1 mm 4 m/S 740 mmHg 94%

    übermorgen, 6 Juni, Samstag

    Zeit Temperatur Niederschläge Wind Luftdruck Luftfeuchtigkeit
    00:00 +15°C° 0 mm 4 m/S 739 mmHg 94%
    01:00 +14°C° 0 mm 4 m/S 739 mmHg 94%
    02:00 +14°C° 0 mm 4 m/S 739 mmHg 94%
    03:00 +14°C° 0 mm 4 m/S 739 mmHg 93%
    04:00 +15°C° 0 mm 4 m/S 740 mmHg 92%
    05:00 +15°C° 0 mm 4 m/S 740 mmHg 92%
    06:00 +15°C° 0 mm 4 m/S 740 mmHg 90%
    07:00 +16°C° 0 mm 5 m/S 741 mmHg 89%
    08:00 +17°C° 0 mm 5 m/S 741 mmHg 88%
    09:00 +18°C° 0.1 mm 4 m/S 742 mmHg 88%
    10:00 +18°C° 0.1 mm 4 m/S 742 mmHg 87%
    11:00 +18°C° 0.1 mm 3 m/S 743 mmHg 87%
    12:00 +20°C° 0.1 mm 3 m/S 743 mmHg 80%
    13:00 +21°C° 0.1 mm 4 m/S 744 mmHg 74%
    14:00 +23°C° 0.1 mm 4 m/S 744 mmHg 67%
    15:00 +23°C° 0.1 mm 4 m/S 744 mmHg 67%
    16:00 +22°C° 0.1 mm 3 m/S 744 mmHg 67%
    17:00 +22°C° 0.1 mm 3 m/S 744 mmHg 68%
    18:00 +21°C° 0 mm 2 m/S 745 mmHg 72%
    19:00 +19°C° 0 mm 2 m/S 745 mmHg 77%
    20:00 +19°C° 0 mm 1 m/S 745 mmHg 82%
    21:00 +18°C° 0 mm 1 m/S 746 mmHg 83%
    22:00 +16°C° 0 mm 1 m/S 746 mmHg 85%
    23:00 +15°C° 0 mm 1 m/S 747 mmHg 86%

    7 Juni, Sonntag

    Zeit Temperatur Niederschläge Wind Luftdruck Luftfeuchtigkeit
    00:00 +15°C° 0 mm 1 m/S 747 mmHg 87%
    01:00 +15°C° 0 mm 1 m/S 747 mmHg 87%
    02:00 +15°C° 0 mm 1 m/S 747 mmHg 87%
    03:00 +15°C° 0 mm 2 m/S 747 mmHg 88%
    04:00 +15°C° 0 mm 2 m/S 747 mmHg 89%
    05:00 +15°C° 0 mm 2 m/S 747 mmHg 90%
    06:00 +16°C° 0.1 mm 2 m/S 747 mmHg 90%
    07:00 +17°C° 0.1 mm 3 m/S 747 mmHg 89%
    08:00 +18°C° 0.1 mm 3 m/S 747 mmHg 89%
    09:00 +19°C° 0 mm 3 m/S 747 mmHg 85%
    10:00 +21°C° 0 mm 4 m/S 747 mmHg 81%
    11:00 +22°C° 0 mm 4 m/S 747 mmHg 78%
    12:00 +23°C° 1.3 mm 4 m/S 747 mmHg 76%
    13:00 +25°C° 1.3 mm 5 m/S 746 mmHg 75%
    14:00 +27°C° 1.3 mm 5 m/S 746 mmHg 74%
    15:00 +26°C° 0.7 mm 5 m/S 746 mmHg 75%
    16:00 +26°C° 0.7 mm 4 m/S 746 mmHg 77%
    17:00 +26°C° 0.7 mm 4 m/S 745 mmHg 78%
    18:00 +23°C° 0.1 mm 4 m/S 745 mmHg 80%
    19:00 +22°C° 0.1 mm 4 m/S 745 mmHg 82%
    20:00 +20°C° 0.1 mm 3 m/S 745 mmHg 85%
    21:00 +20°C° 0 mm 3 m/S 746 mmHg 85%
    22:00 +19°C° 0 mm 3 m/S 746 mmHg 86%
    23:00 +18°C° 0 mm 3 m/S 746 mmHg 87%

    8 Juni, Montag

    Zeit Temperatur Niederschläge Wind Luftdruck Luftfeuchtigkeit
    00:00 +18°C° 0 mm 3 m/S 746 mmHg 88%
    01:00 +17°C° 0 mm 2 m/S 746 mmHg 90%
    02:00 +16°C° 0 mm 2 m/S 746 mmHg 92%
    03:00 +16°C° 0 mm 2 m/S 746 mmHg 93%
    04:00 +16°C° 0 mm 2 m/S 746 mmHg 93%
    05:00 +16°C° 0 mm 2 m/S 745 mmHg 94%
    06:00 +18°C° 0 mm 2 m/S 745 mmHg 89%
    07:00 +19°C° 0 mm 3 m/S 745 mmHg 85%
    08:00 +21°C° 0 mm 3 m/S 745 mmHg 80%
    09:00 +22°C° 0.3 mm 3 m/S 745 mmHg 76%
    10:00 +25°C° 0.3 mm 3 m/S 745 mmHg 72%
    11:00 +26°C° 0.3 mm 3 m/S 745 mmHg 68%
    12:00 +26°C° 1.3 mm 3 m/S 745 mmHg 71%
    13:00 +26°C° 1.3 mm 3 m/S 745 mmHg 73%
    14:00 +26°C° 1.3 mm 3 m/S 744 mmHg 76%
    15:00 +26°C° 0.9 mm 3 m/S 744 mmHg 77%
    16:00 +25°C° 0.9 mm 3 m/S 744 mmHg 78%
    17:00 +25°C° 0.9 mm 2 m/S 744 mmHg 80%
    18:00 +24°C° 0.1 mm 2 m/S 744 mmHg 83%
    19:00 +23°C° 0.1 mm 2 m/S 744 mmHg 86%
    20:00 +21°C° 0.1 mm 2 m/S 744 mmHg 89%
    21:00 +20°C° 0.1 mm 2 m/S 744 mmHg 91%
    22:00 +19°C° 0.1 mm 2 m/S 744 mmHg 92%
    23:00 +19°C° 0.1 mm 2 m/S 745 mmHg 94%

    9 Juni, Dienstag

    Zeit Temperatur Niederschläge Wind Luftdruck Luftfeuchtigkeit
    00:00 +18°C° 0 mm 2 m/S 745 mmHg 95%
    01:00 +18°C° 0 mm 2 m/S 745 mmHg 95%
    02:00 +17°C° 0 mm 2 m/S 745 mmHg 96%
    03:00 +17°C° 0 mm 2 m/S 745 mmHg 96%
    04:00 +17°C° 0 mm 2 m/S 745 mmHg 96%
    05:00 +17°C° 0 mm 2 m/S 745 mmHg 97%
    06:00 +19°C° 0 mm 2 m/S 746 mmHg 93%
    07:00 +20°C° 0 mm 3 m/S 746 mmHg 89%
    08:00 +22°C° 0 mm 3 m/S 746 mmHg 86%
    09:00 +24°C° 0.6 mm 3 m/S 746 mmHg 80%
    10:00 +26°C° 0.6 mm 3 m/S 746 mmHg 74%
    11:00 +27°C° 0.6 mm 2 m/S 747 mmHg 68%
    12:00 +27°C° 0.3 mm 2 m/S 747 mmHg 66%
    13:00 +28°C° 0.3 mm 2 m/S 747 mmHg 65%
    14:00 +28°C° 0.3 mm 2 m/S 746 mmHg 63%
    15:00 +27°C° 0.6 mm 2 m/S 746 mmHg 67%
    16:00 +27°C° 0.6 mm 2 m/S 746 mmHg 71%
    17:00 +26°C° 0.6 mm 2 m/S 746 mmHg 75%
    18:00 +25°C° 0.3 mm 2 m/S 746 mmHg 79%
    19:00 +24°C° 0.3 mm 1 m/S 746 mmHg 82%
    20:00 +22°C° 0.3 mm 1 m/S 746 mmHg 86%
    21:00 +22°C° 0.1 mm 1 m/S 746 mmHg 87%
    22:00 +21°C° 0.1 mm 1 m/S 746 mmHg 88%
    23:00 +20°C° 0.1 mm 1 m/S 746 mmHg 89%
    Mehr zeigen